Location: *
(2.5500°S, 65.9667°W)
Time: 07:25:25
(UTC+00:00)

Explorer 7 - Pass Details

Date: 21 April 2024
Orbit: 467 x 625 km, 50.3° (Epoch: 26 May)

Event Time Altitude Azimuth Distance (km) Brightness Sun altitude
Rises 11:15:45 0° 204° (SSW) 2,675 10.0 12.4°
Reaches altitude 10° 11:18:02 10° 196° (SSW) 1,811 9.2 13.0°
Maximum altitude 11:21:54 38° 127° (SE) 866 8.5 13.9°
Drops below altitude 10° 11:25:56 10° 58° (ENE) 1,898 11.3 14.9°
Sets 11:28:23 0° 50° (NE) 2,822 11.6 15.5°
